Location: B?jaj?g
(11.7167°N, 92.6667°E)
Time: 07:15:47
(UTC+00:00)

Cosmos 1777 Rocket - Pass Details

Date: 18 September 2020
Orbit: 759 x 775 km, 74.0° (Epoch: 19 October)

Event Time Altitude Azimuth Distance (km) Brightness Sun altitude
Rises 22:12:28 0° 338° (NNW) 3,211 7.1 -21.9°
Enters shadow 22:13:20 - 337° (NNW) 2,876 6.8 -21.7°
Exits shadow 22:15:23 13° 331° (NNW) 2,102 6.0 -21.2°
Maximum altitude 22:19:53 50° 259° (WSW) 962 4.1 -20.1°
Drops below altitude 10° 22:24:52 10° 184° (S) 2,281 6.4 -18.8°
Sets 22:27:17 0° 179° (S) 3,206 7.2 -18.3°
